CW0003 Weather Reports


Display with metric or nautical units.
time (UTC)temp
F
wind
direction
speed
MPH
gust
MPH
rain 1hr
in
rain 24hr
in
rain mn
in
humidity
%
barometer
mb
20170624191239 86 283 0.0 0.0 0.01 0.07 0.07 57 1001.0
20170624185827 86 284 0.0 0.0 0.00 0.06 0.06 57 1000.8
20170624184324 86 262 0.0 0.0 0.00 0.06 0.06 61 1000.5
20170624182820 86 305 0.0 0.0 0.00 0.06 0.06 64 1000.2
20170624181328 85 245 0.0 0.0 0.00 0.06 0.06 68 1000.2
20170624175813 84 286 0.0 0.0 0.00 0.06 0.06 66 1000.4
20170624174313 84 325 0.0 0.0 0.00 0.06 0.06 77 1000.1
20170624172809 83 291 0.0 0.0 0.00 0.06 0.06 81 999.8
20170624171314 84 254 0.0 0.0 0.00 0.06 0.06 78 999.9
20170624165805 84 322 0.0 0.0 0.01 0.06 0.06 85 999.5
20170624164313 82 268 0.0 0.0 0.01 0.06 0.06 78 999.2
20170624162757 80 348 0.0 0.0 0.01 0.06 0.06 84 998.9
20170624161254 80 350 0.0 0.0 0.01 0.06 0.06 89 999.2
20170624155750 79 350 0.0 0.0 0.00 0.05 0.05 90 999.2
20170624154244 79 302 0.0 0.0 0.00 0.05 0.05 90 999.3
20170624152743 79 302 0.0 0.0 0.01 0.05 0.05 92 999.3
20170624151237 78 188 0.0 0.0 0.01 0.05 0.05 93 999.2
20170624145727 77 188 0.0 0.0 0.01 0.05 0.05 92 999.1
20170624144225 77 181 0.0 0.0 0.01 0.05 0.05 93 999.0
20170624142717 77 210 0.0 0.0 0.01 0.04 0.04 93 999.1
20170624141219 77 211 0.0 0.0 0.01 0.04 0.04 92 998.9
20170624135712 77 218 0.0 0.0 0.01 0.04 0.04 91 998.9
20170624134210 77 198 0.0 0.0 0.01 0.04 0.04 91 999.1
20170624132703 77 202 0.0 0.0 0.00 0.03 0.03 91 999.1
20170624131203 77 194 0.0 0.0 0.00 0.03 0.03 90 998.8
20170624125700 77 236 0.0 0.0 0.00 0.03 0.03 91 998.7
20170624124157 77 209 0.0 0.0 0.00 0.03 0.03 92 998.4
20170624122658 77 214 0.0 0.0 0.00 0.03 0.03 92 998.3
20170624121157 76 229 0.0 0.0 0.00 0.03 0.03 94 998.2
20170624115651 76 215 0.0 0.0 0.00 0.03 0.03 95 998.1
20170624114145 75 228 0.0 0.0 0.00 0.03 0.03 97 998.3
20170624112644 74 234 0.0 0.0 0.00 0.03 0.03 96 998.0
20170624111144 74 194 0.0 0.0 0.00 0.03 0.03 96 998.0
20170624105633 73 189 0.0 0.0 0.00 0.03 0.03 96 998.0
20170624104127 73 198 0.0 0.0 0.00 0.03 0.03 96 998.2
20170624102627 73 212 0.0 0.0 0.00 0.03 0.03 96 998.0
20170624101117 73 219 0.0 0.0 0.00 0.03 0.03 96 998.2
20170624095617 72 212 0.0 0.0 0.00 0.03 0.03 96 997.9
20170624094114 73 196 0.0 0.0 0.00 0.03 0.03 96 998.0
20170624092614 73 205 0.0 0.0 0.00 0.03 0.03 96 997.9
20170624091110 73 218 0.0 0.0 0.00 0.03 0.03 96 997.8
20170624085604 73 211 0.0 0.0 0.00 0.03 0.03 96 997.5
20170624084103 73 231 0.0 0.0 0.00 0.03 0.03 95 997.5
20170624082601 73 206 0.0 0.0 0.00 0.03 0.03 95 997.4
20170624081058 73 171 0.0 0.0 0.00 0.03 0.03 95 997.3
20170624075546 73 198 0.0 0.0 0.00 0.03 0.03 95 997.5
20170624074042 73 208 0.0 0.0 0.00 0.03 0.03 95 997.7
20170624072535 73 196 0.0 0.0 0.00 0.03 0.03 95 997.8
20170624071129 73 194 0.0 0.0 0.00 0.03 0.03 95 997.8
20170624065624 73 201 0.0 0.0 0.01 0.03 0.03 94 998.2
20170624064121 73 205 0.0 0.0 0.01 0.03 0.03 94 998.2
20170624062618 73 176 0.0 0.0 0.01 0.03 0.03 94 998.3
20170624061113 73 175 0.0 0.0 0.01 0.03 0.03 93 998.5
20170624055611 73 192 0.0 0.0 0.00 0.02 0.02 93 999.0
20170624054107 73 192 0.0 0.0 0.00 0.02 0.02 92 999.1
20170624052604 73 190 0.0 0.0 0.00 0.02 0.02 91 999.1
20170624051101 74 190 0.0 0.0 0.01 0.02 0.02 90 999.4
20170624045602 74 190 0.0 0.0 0.02 0.02 0.02 91 999.2
20170624044052 74 194 0.0 0.0 0.02 0.02 0.02 90 999.5
20170624042558 74 194 0.0 0.0 0.02 0.02 0.02 90 999.8
20170624041048 75 173 0.0 0.0 0.01 0.01 0.01 90 1000.0
20170624035545 75 203 0.0 0.0 0.00 0.00 0.00 88 1000.0
20170624034040 75 219 0.0 0.0 0.00 0.00 0.00 88 1000.1
20170624032544 75 213 0.0 0.0 0.00 0.00 0.00 87 1000.4
20170624031056 75 234 0.0 0.0 0.00 0.00 0.00 86 1000.6
20170624025534 75 202 0.0 0.0 0.00 0.00 0.00 86 1000.7
20170624024038 75 207 0.0 0.0 0.00 0.00 0.00 85 1000.6
20170624022534 75 209 0.0 0.0 0.00 0.00 0.00 85 1000.6
20170624021032 76 194 0.0 0.0 0.00 0.00 0.00 84 1000.8
20170624015525 76 183 0.0 0.0 0.00 0.00 0.00 84 1000.6
20170624014014 76 238 0.0 0.0 0.00 0.00 0.00 83 1000.6
20170624012505 76 187 0.0 0.0 0.00 0.00 0.00 83 1000.6
20170624011004 77 198 0.0 0.0 0.00 0.00 0.00 82 1000.4
20170624005458 77 220 0.0 0.0 0.00 0.00 0.00 82 1000.2
20170624003958 77 241 0.0 0.0 0.00 0.00 0.00 81 1000.1
20170624002458 78 216 0.0 0.0 0.00 0.00 0.00 80 1000.2
20170624000954 78 226 0.0 0.0 0.00 0.00 0.00 79 1000.1
20170623235452 79 223 0.0 0.0 0.00 0.00 0.00 78 1000.1
20170623233951 80 225 0.0 0.0 0.00 0.00 0.00 76 1000.5
20170623232446 81 203 0.0 0.0 0.00 0.00 0.00 71 1000.0
20170623230949 81 161 0.0 0.0 0.00 0.00 0.00 69 1000.1
20170623225441 82 215 0.0 0.0 0.00 0.00 0.00 66 1000.0
20170623223938 83 229 0.0 0.0 0.00 0.00 0.00 65 999.9
20170623222444 84 200 0.0 0.0 0.00 0.00 0.00 63 1000.0
20170623220933 85 186 0.0 0.0 0.00 0.00 0.00 61 1000.0
20170623215434 87 193 0.0 0.0 0.00 0.00 0.00 58 1000.1
20170623213929 87 201 0.0 0.0 0.00 0.00 0.00 58 1000.3
20170623212428 87 188 0.0 0.0 0.00 0.00 0.00 63 1000.4
20170623210924 87 221 0.0 0.0 0.00 0.00 0.00 60 1000.6
20170623205420 87 172 0.0 0.0 0.00 0.00 0.00 63 1000.8
20170623203916 87 188 0.0 0.0 0.00 0.00 0.00 55 1001.0
20170623202414 89 171 0.0 0.0 0.00 0.00 0.00 64 1001.1
20170623200911 89 213 0.0 0.0 0.00 0.00 0.00 71 1001.4
20170623195359 89 216 0.0 0.0 0.00 0.00 0.00 68 1001.5
20170623193857 89 161 0.0 0.0 0.00 0.00 0.00 76 1001.7
20170623192353 88 220 0.0 0.0 0.00 0.00 0.00 76 1002.0